CGNBR CYGE-CYBP

Flight info

Callsign CGNBR
Flight time N/A
Altitude 2500
Route CYGE CYYX CYBP
Aircraft C208/L-V/N

Departure

Time 2026-04-15 18:02
Airport Golden Airport (CYGE)

Arrival

Time N/A
Airport Brooks Regional Airport (CYBP)
Time Latitude Longitude Altitude Speed Heading
2026-04-15 17:45 51.29816 -116.98327 2583 ft 0 kts 158°
2026-04-15 17:49 51.29767 -116.98237 2579 ft 21 kts 141°
2026-04-15 17:50 51.29718 -116.98109 2584 ft 8 kts 155°
2026-04-15 17:50 51.29682 -116.98082 2585 ft 9 kts 153°
2026-04-15 17:50 51.29585 -116.98017 2580 ft 21 kts 161°
2026-04-15 17:50 51.29484 -116.97939 2582 ft 15 kts 162°
2026-04-15 17:51 51.29380 -116.97913 2583 ft 16 kts 208°
2026-04-15 17:51 51.29353 -116.97919 2578 ft 0 kts 135°
2026-04-15 17:51 51.29353 -116.97917 2578 ft 0 kts 119°
2026-04-15 17:51 51.29351 -116.97910 2579 ft 0 kts 106°
2026-04-15 17:54 51.29349 -116.97902 2580 ft 2 kts 108°
2026-04-15 17:55 51.29347 -116.97890 2580 ft 1 kts 108°
2026-04-15 17:55 51.29346 -116.97889 2580 ft 0 kts 108°
2026-04-15 18:00 51.29344 -116.97878 2581 ft 8 kts 114°
2026-04-15 18:01 51.29500 -116.97946 2583 ft 52 kts 335°
2026-04-15 18:01 51.30001 -116.98260 2576 ft 102 kts 341°
2026-04-15 18:01 51.30769 -116.98525 2724 ft 128 kts
2026-04-15 18:01 51.31407 -116.97485 2829 ft 151 kts 90°
2026-04-15 18:02 51.30616 -116.96507 2845 ft 169 kts 163°
2026-04-15 18:02 51.29761 -116.95579 3677 ft 133 kts 137°
2026-04-15 18:02 51.29290 -116.94204 3742 ft 163 kts 98°
2026-04-15 18:02 51.29336 -116.92298 3934 ft 166 kts 82°
2026-04-15 18:03 51.29553 -116.90733 4769 ft 133 kts 63°
2026-04-15 18:03 51.30128 -116.89366 4744 ft 167 kts 59°
2026-04-15 18:03 51.30408 -116.87465 4639 ft 190 kts 95°
2026-04-15 18:03 51.29954 -116.85477 4535 ft 197 kts 118°
2026-04-15 18:04 51.29323 -116.83532 4509 ft 196 kts 117°
2026-04-15 18:04 51.28731 -116.81579 4509 ft 195 kts 116°
2026-04-15 18:04 51.28145 -116.79628 4505 ft 195 kts 116°
2026-04-15 18:04 51.27560 -116.77685 4507 ft 194 kts 116°
2026-04-15 18:05 51.26977 -116.75747 4505 ft 194 kts 116°
2026-04-15 18:05 51.26394 -116.73812 4506 ft 193 kts 116°
2026-04-15 18:05 51.25811 -116.71884 4506 ft 192 kts 116°
2026-04-15 18:05 51.25231 -116.69956 4503 ft 193 kts 116°
2026-04-15 18:06 51.24651 -116.68032 4502 ft 192 kts 116°
2026-04-15 18:06 51.24069 -116.66111 4506 ft 192 kts 116°
2026-04-15 18:06 51.23621 -116.64113 4508 ft 193 kts 97°
2026-04-15 18:06 51.23467 -116.62208 5056 ft 163 kts 103°
2026-04-15 18:07 51.23141 -116.60402 5045 ft 178 kts 111°
2026-04-15 18:07 51.22581 -116.58563 4876 ft 191 kts 115°
2026-04-15 18:07 51.22744 -116.56680 5252 ft 170 kts 39°
2026-04-15 18:07 51.23803 -116.56368 5600 ft 159 kts 341°
2026-04-15 18:08 51.24799 -116.57287 5562 ft 170 kts 322°
2026-04-15 18:08 51.25772 -116.58364 5708 ft 171 kts 330°
2026-04-15 18:08 51.26909 -116.59032 5686 ft 179 kts 347°
2026-04-15 18:08 51.28178 -116.59146 5519 ft 187 kts
2026-04-15 18:09 51.29475 -116.58924 5447 ft 185 kts
2026-04-15 18:09 51.30740 -116.58552 5451 ft 186 kts 10°
2026-04-15 18:09 51.32007 -116.58094 5444 ft 185 kts 15°
2026-04-15 18:09 51.33195 -116.57367 5347 ft 182 kts 21°
2026-04-15 18:10 51.34341 -116.56566 5246 ft 180 kts 23°
2026-04-15 18:10 51.35445 -116.55689 5250 ft 174 kts 26°
2026-04-15 18:10 51.36284 -116.54376 5294 ft 171 kts 60°
2026-04-15 18:10 51.36880 -116.52774 5384 ft 165 kts 50°
2026-04-15 18:11 51.37733 -116.51583 5476 ft 161 kts 34°
2026-04-15 18:11 51.38635 -116.50543 5573 ft 160 kts 34°
2026-04-15 18:11 51.39526 -116.49482 5665 ft 160 kts 41°
2026-04-15 18:11 51.40156 -116.48006 5765 ft 161 kts 59°
2026-04-15 18:12 51.40746 -116.46479 5874 ft 161 kts 57°
2026-04-15 18:12 51.41348 -116.44957 5972 ft 162 kts 56°
2026-04-15 18:12 51.41949 -116.43428 6070 ft 162 kts 57°
2026-04-15 18:12 51.42558 -116.41898 6178 ft 164 kts 56°
2026-04-15 18:13 51.43164 -116.40369 6269 ft 165 kts 50°
2026-04-15 18:13 51.43877 -116.38955 6358 ft 165 kts 67°
2026-04-15 18:13 51.43985 -116.37139 6459 ft 165 kts 88°
2026-04-15 18:14 51.44478 -116.33591 6664 ft 163 kts 74°
2026-04-15 18:14 51.44782 -116.31826 6766 ft 165 kts 74°
2026-04-15 18:14 51.45073 -116.30050 6865 ft 165 kts 75°
2026-04-15 18:14 51.45405 -116.28294 6963 ft 165 kts 64°
2026-04-15 18:15 51.45838 -116.26610 7053 ft 165 kts 85°
2026-04-15 18:15 51.45632 -116.24814 7146 ft 165 kts 115°
2026-04-15 18:15 51.44925 -116.23430 7239 ft 158 kts 131°
2026-04-15 18:15 51.44413 -116.21914 7298 ft 154 kts 106°
2026-04-15 18:16 51.44332 -116.20302 7106 ft 156 kts 89°
2026-04-15 18:16 51.44295 -116.18407 6598 ft 159 kts 105°
2026-04-15 18:16 51.43578 -116.17150 6183 ft 151 kts 142°
2026-04-15 18:16 51.42822 -116.17205 5867 ft 111 kts 239°
2026-04-15 18:17 51.42741 -116.18486 5228 ft 119 kts 286°
2026-04-15 18:17 51.43238 -116.19355 5388 ft 91 kts 291°
2026-04-15 18:17 51.43177 -116.19042 5493 ft 131 kts 111°
2026-04-15 18:17 51.42690 -116.18143 5702 ft 116 kts 202°
2026-04-15 18:18 51.42869 -116.19363 5558 ft 121 kts 272°
2026-04-15 18:18 51.42580 -116.20597 5739 ft 124 kts 244°
2026-04-15 18:18 51.42022 -116.21642 5929 ft 132 kts 206°
2026-04-15 18:18 51.41278 -116.22502 6254 ft 127 kts 230°
2026-04-15 18:19 51.40648 -116.23720 6203 ft 150 kts 236°
2026-04-15 18:19 51.40029 -116.25048 6598 ft 141 kts 230°
2026-04-15 18:19 51.39435 -116.26160 7141 ft 126 kts 229°
2026-04-15 18:19 51.38890 -116.27261 7495 ft 124 kts 237°
2026-04-15 18:20 51.38450 -116.28355 7987 ft 111 kts 236°
2026-04-15 18:20 51.37851 -116.28957 8355 ft 105 kts 188°
2026-04-15 18:20 51.37284 -116.28924 8847 ft 0 kts 166°
2026-04-15 18:20 51.36930 -116.28840 9510 ft 0 kts 190°
2026-04-15 18:21 51.35890 -116.29404 8924 ft 180 kts 224°
2026-04-15 18:21 51.35431 -116.31463 8176 ft 221 kts 268°
2026-04-15 18:21 51.35168 -116.33682 8654 ft 182 kts 212°
2026-04-15 18:21 51.34228 -116.32609 8379 ft 203 kts 119°
2026-04-15 18:22 51.33478 -116.30847 8859 ft 174 kts 140°
2026-04-15 18:22 51.32474 -116.29633 8826 ft 182 kts 133°
2026-04-15 18:22 51.31839 -116.28006 9190 ft 176 kts 115°
2026-04-15 18:22 51.31708 -116.25971 8915 ft 200 kts 77°
2026-04-15 18:23 51.32089 -116.23770 8737 ft 209 kts 74°
2026-04-15 18:23 51.32200 -116.21414 7842 ft 236 kts 104°
2026-04-15 18:23 51.32322 -116.18756 6789 ft 253 kts 51°
2026-04-15 18:23 51.33754 -116.17500 7001 ft 216 kts 17°
2026-04-15 18:24 51.35061 -116.16763 7548 ft 189 kts 21°
2026-04-15 18:24 51.36332 -116.15933 7267 ft 208 kts 23°
2026-04-15 18:24 51.37630 -116.14864 6934 ft 215 kts 42°
2026-04-15 18:24 51.37776 -116.12454 5992 ft 236 kts 108°
2026-04-15 18:25 51.36855 -116.10414 5844 ft 214 kts 135°
2026-04-15 18:25 51.35881 -116.08876 5853 ft 182 kts 137°
2026-04-15 18:25 51.35103 -116.07378 5794 ft 169 kts 118°
2026-04-15 18:25 51.34521 -116.05740 5810 ft 178 kts 126°
2026-04-15 18:26 51.33727 -116.04127 5815 ft 186 kts 130°
2026-04-15 18:26 51.32902 -116.02539 5817 ft 190 kts 130°
2026-04-15 18:26 51.32053 -116.00902 5881 ft 189 kts 130°
2026-04-15 18:26 51.31230 -115.99322 6117 ft 181 kts 130°
2026-04-15 18:27 51.30433 -115.97839 6356 ft 171 kts 132°
2026-04-15 18:27 51.29677 -115.96405 6595 ft 166 kts 130°
2026-04-15 18:27 51.28950 -115.94989 6834 ft 163 kts 130°
2026-04-15 18:27 51.28231 -115.93594 6993 ft 165 kts 130°
2026-04-15 18:28 51.27497 -115.92157 6995 ft 173 kts 129°
2026-04-15 18:28 51.26719 -115.90634 7006 ft 179 kts 129°
2026-04-15 18:28 51.25917 -115.89090 7004 ft 182 kts 130°
2026-04-15 18:28 51.25100 -115.87529 7014 ft 184 kts 130°
2026-04-15 18:29 51.24272 -115.85951 7004 ft 186 kts 130°
2026-04-15 18:29 51.23452 -115.84386 7007 ft 186 kts 130°
2026-04-15 18:29 51.22624 -115.82806 7007 ft 186 kts 130°
2026-04-15 18:29 51.21791 -115.81222 6999 ft 185 kts 130°
2026-04-15 18:30 51.20966 -115.79649 7002 ft 184 kts 130°
2026-04-15 18:30 51.20146 -115.78084 6999 ft 184 kts 130°
2026-04-15 18:30 51.19328 -115.76524 6997 ft 183 kts 130°
2026-04-15 18:30 51.18512 -115.74965 6999 ft 183 kts 130°
2026-04-15 18:31 51.17679 -115.73393 7006 ft 187 kts 130°
2026-04-15 18:31 51.16854 -115.71773 7003 ft 191 kts 127°
2026-04-15 18:31 51.16218 -115.69907 6993 ft 197 kts 105°
2026-04-15 18:31 51.16122 -115.67717 6933 ft 202 kts 82°
2026-04-15 18:32 51.16586 -115.65603 6869 ft 204 kts 63°
2026-04-15 18:32 51.17005 -115.64266 6821 ft 204 kts 63°
2026-04-15 18:32 51.17622 -115.62223 6751 ft 205 kts 64°
2026-04-15 18:32 51.18239 -115.60170 6681 ft 206 kts 64°
2026-04-15 18:33 51.18762 -115.58047 6599 ft 208 kts 81°
2026-04-15 18:33 51.17973 -115.56278 5310 ft 195 kts 199°
2026-04-15 18:33 51.16803 -115.56321 4790 ft 168 kts 146°
2026-04-15 18:33 51.16023 -115.55250 4876 ft 120 kts 109°
2026-04-15 18:34 51.16292 -115.54703 4944 ft 126 kts 343°
2026-04-15 18:34 51.17053 -115.55758 4836 ft 158 kts 317°
2026-04-15 18:34 51.17914 -115.56830 4781 ft 156 kts 358°
2026-04-15 18:34 51.18664 -115.55785 4936 ft 143 kts 60°
2026-04-15 18:35 51.19374 -115.54782 4878 ft 153 kts
2026-04-15 18:35 51.20381 -115.54302 4707 ft 152 kts 24°
2026-04-15 18:35 51.21118 -115.53891 4807 ft 70 kts 28°
2026-04-15 18:35 51.21201 -115.53817 5068 ft 92 kts 226°
2026-04-15 18:36 51.20439 -115.53730 4975 ft 135 kts 115°
2026-04-15 18:36 51.20728 -115.52510 5360 ft 133 kts 22°
2026-04-15 18:36 51.21745 -115.52585 5084 ft 162 kts 327°
2026-04-15 18:36 51.22702 -115.52718 5223 ft 133 kts 43°
2026-04-15 18:37 51.22394 -115.52081 5181 ft 129 kts 230°
2026-04-15 18:37 51.21913 -115.53104 4922 ft 100 kts 225°
2026-04-15 18:37 51.21368 -115.53687 4708 ft 90 kts 205°
2026-04-15 18:37 51.20834 -115.54052 4591 ft 74 kts 201°
2026-04-15 18:38 51.20506 -115.54307 4593 ft 31 kts 220°
2026-04-15 18:38 51.20476 -115.54299 4592 ft 1 kts 31°
2026-04-15 18:38 51.20485 -115.54290 4592 ft 1 kts 38°
2026-04-15 18:38 51.20441 -115.54274 4592 ft 10 kts 197°
2026-04-15 18:39 51.20381 -115.54303 4591 ft 6 kts 192°
2026-04-15 18:39 51.20344 -115.54320 4592 ft 14 kts 234°
2026-04-15 18:39 51.20361 -115.54371 4591 ft 0 kts 12°